"startDT [UTC]","vpos","CH4 [ppm]","stdev(CH4) [ppm]","CO2 [ppm]","stdev(CO2) [ppm]","H2O_reported [%]","stdev(H2O_reported)","CavityPressure [torr]","CavityTemp [C]","OutletValve","CH4_dry [ppm]","CO2_dry [ppm]","DasTemp [C]","EtalonTemp [C]","WarmBoxTemp [C]","MPVPosition","T_ECpre [C]","T_EC1 [C]","T_EC2 [C]","p_inlet [hPa]","p_in [hPa]","p_out [hPa]","T_inlet [C]","RH_inlet [%]","dwpt_inlet [C]","T_vent [C]","RH_vent [%]","dwpt_vent [C]","flow_vent [l min-1]","flow_inlet [l min-1]","dwpt_sample [C]","T_room [C]"
2015-06-23 00:00:00,0.0,1.88288,0.00040,398.011,0.050,0.6422,0.0070,140.003,45.000,34183.28568,1.89502,401.148,32.999,45.068,45.000,0.00,0.10,-272.72,-272.78,-6,988,-4,23.0,17.3,-3.1,22.7,17.9,-2.9,5.73,1.92,-1.0,27.2
2015-06-23 00:01:00,0.0,1.88288,0.00040,397.928,0.053,0.6521,0.0032,140.004,45.000,34184.94970,1.89520,401.109,33.000,45.068,45.000,0.00,0.10,-272.71,-272.78,-6,988,-4,23.0,17.7,-2.9,22.7,18.1,-2.7,5.73,1.90,-1.0,27.2
2015-06-23 00:02:00,0.0,1.88282,0.00039,397.930,0.040,0.6518,0.0038,140.003,45.000,34185.71717,1.89514,401.116,33.002,45.068,45.000,0.00,0.10,-272.71,-272.78,-6,988,-4,23.0,17.7,-2.9,22.7,18.2,-2.7,5.73,1.88,-1.0,27.2
2015-06-23 00:03:00,0.0,1.88274,0.00031,397.921,0.056,0.6538,0.0060,139.999,45.000,34184.76481,1.89512,401.112,33.004,45.068,45.000,0.00,0.10,-272.72,-272.79,-6,988,-5,23.0,17.7,-2.8,22.7,18.2,-2.6,5.73,1.88,-1.0,27.2
2015-06-23 00:04:00,0.0,1.88275,0.00034,397.974,0.067,0.6476,0.0068,139.996,45.000,34182.24942,1.89498,401.137,33.011,45.068,45.000,0.00,0.10,-272.72,-272.78,-6,988,-4,23.0,17.5,-3.0,22.7,18.0,-2.8,5.73,1.89,-1.0,27.2
2015-06-23 00:05:00,0.0,1.88321,0.00037,397.990,0.047,0.6453,0.0038,140.002,45.000,34182.33964,1.89539,401.139,33.010,45.068,45.000,0.00,0.10,-272.71,-272.77,-6,988,-4,23.0,17.5,-3.0,22.7,18.0,-2.8,5.73,1.91,-1.0,27.2
2015-06-23 00:06:00,0.0,1.88324,0.00030,397.984,0.031,0.6471,0.0045,139.996,45.000,34180.73950,1.89546,401.146,33.000,45.068,45.000,0.00,0.10,-272.72,-272.79,-6,988,-4,23.0,17.5,-3.0,22.7,18.0,-2.8,5.73,1.93,-1.0,27.2
2015-06-23 00:07:00,0.0,1.88292,0.00045,398.052,0.039,0.6375,0.0040,139.998,45.000,34182.97131,1.89505,401.166,33.000,45.068,45.000,0.00,0.10,-272.73,-272.79,-6,988,-4,23.0,17.2,-3.2,22.7,17.8,-3.0,5.73,1.95,-1.0,27.2
2015-06-23 00:08:00,0.0,1.88314,0.00039,398.030,0.037,0.6342,0.0027,140.000,45.000,34181.98999,1.89510,401.127,32.991,45.068,45.000,0.00,0.10,-272.72,-272.78,-6,988,-4,23.0,17.1,-3.3,22.7,17.6,-3.1,5.73,1.95,-1.0,27.2
2015-06-23 00:09:00,0.0,1.88290,0.00031,398.005,0.060,0.6381,0.0074,140.003,45.000,34184.30026,1.89495,401.120,32.983,45.068,45.000,0.00,0.10,-272.72,-272.78,-6,988,-4,23.0,17.2,-3.2,22.7,17.8,-3.0,5.73,1.94,-1.0,27.2
2015-06-23 00:10:00,0.0,1.88305,0.00032,398.077,0.043,0.6301,0.0082,139.997,45.000,34181.59106,1.89497,401.153,32.980,45.068,45.000,0.00,0.10,-272.73,-272.78,-6,988,-4,23.0,17.0,-3.3,22.7,17.6,-3.1,5.73,1.92,-1.0,27.2
2015-06-23 00:11:00,0.0,1.88313,0.00032,398.138,0.050,0.6190,0.0073,139.997,45.000,34182.85396,1.89480,401.159,32.997,45.068,45.000,0.00,0.10,-272.72,-272.78,-6,988,-4,23.0,16.6,-3.7,22.7,17.2,-3.4,5.73,1.90,-1.0,27.2
2015-06-23 00:12:00,0.0,1.88316,0.00042,398.141,0.028,0.6133,0.0040,140.003,45.000,34186.92342,1.89474,401.134,32.994,45.068,45.000,0.00,0.10,-272.71,-272.77,-6,988,-4,23.0,16.5,-3.8,22.7,17.0,-3.6,5.73,1.88,-1.0,27.3
2015-06-23 00:13:00,0.0,1.88310,0.00040,398.141,0.037,0.6150,0.0033,140.002,45.000,34185.50577,1.89473,401.144,32.998,45.068,45.000,0.00,0.10,-272.73,-272.79,-6,988,-4,23.0,16.6,-3.7,22.7,17.1,-3.5,5.73,1.88,-1.0,27.2
2015-06-23 00:14:00,0.0,1.88320,0.00050,398.095,0.038,0.6175,0.0035,140.001,45.000,34185.04472,1.89485,401.109,33.000,45.068,45.000,0.00,0.10,-272.72,-272.79,-6,988,-4,23.0,16.7,-3.6,22.7,17.1,-3.5,5.73,1.90,-1.0,27.2
2015-06-23 00:15:00,0.0,1.88262,0.00053,397.909,0.079,0.6390,0.0121,140.000,45.000,34184.79435,1.89471,401.028,33.000,45.068,45.000,0.00,0.10,-272.71,-272.78,-6,988,-4,23.0,17.3,-3.2,22.8,17.6,-3.1,5.73,1.92,-1.0,27.2
2015-06-23 00:16:00,0.0,1.88245,0.00033,397.849,0.055,0.6517,0.0038,139.998,45.000,34185.81525,1.89480,401.029,33.002,45.068,45.000,0.00,0.10,-272.72,-272.78,-6,988,-4,23.0,17.7,-2.9,22.8,18.1,-2.7,5.73,1.94,-0.9,27.2
2015-06-23 00:17:00,0.0,1.88278,0.00059,397.976,0.077,0.6419,0.0077,140.000,45.000,34185.45131,1.89484,401.109,33.001,45.068,45.000,0.00,0.10,-272.72,-272.79,-6,988,-4,23.0,17.3,-3.1,22.8,17.9,-2.9,5.73,1.95,-0.9,27.2
2015-06-23 00:18:00,0.0,1.88295,0.00038,397.978,0.048,0.6367,0.0061,140.000,45.000,34185.70831,1.89504,401.086,33.000,45.068,45.000,0.00,0.10,-272.72,-272.78,-6,988,-4,23.0,17.2,-3.2,22.7,17.6,-3.1,5.73,1.95,-1.0,27.3
2015-06-23 00:19:00,0.0,1.88271,0.00044,397.995,0.100,0.6381,0.0130,139.997,45.000,34185.99171,1.89471,401.111,33.001,45.068,45.000,0.00,0.10,-272.72,-272.78,-6,988,-4,23.0,17.2,-3.2,22.8,17.8,-2.9,5.73,1.94,-1.0,27.2
2015-06-23 00:20:00,0.0,1.88320,0.00036,398.184,0.034,0.6082,0.0021,139.998,45.000,34186.21659,1.89472,401.154,33.000,45.068,45.000,0.00,0.10,-272.73,-272.79,-6,988,-4,23.0,16.4,-3.8,22.8,16.9,-3.6,5.73,1.92,-1.0,27.2
2015-06-23 00:21:00,0.0,1.88281,0.00033,397.986,0.075,0.6353,0.0075,139.998,45.000,34185.69474,1.89480,401.087,33.000,45.068,45.000,0.00,0.10,-272.72,-272.79,-6,988,-4,23.0,17.1,-3.3,22.8,17.4,-3.2,5.73,1.90,-1.0,27.3
2015-06-23 00:22:00,0.0,1.88318,0.00040,398.059,0.079,0.6306,0.0110,140.001,45.000,34184.54471,1.89512,401.137,32.994,45.068,45.000,0.00,0.10,-272.71,-272.77,-6,988,-4,23.0,17.0,-3.4,22.8,17.6,-3.1,5.73,1.88,-1.0,27.3
2015-06-23 00:23:00,0.0,1.88356,0.00043,398.080,0.032,0.6251,0.0022,140.004,45.000,34184.93776,1.89532,401.129,32.986,45.068,45.000,0.00,0.10,-272.72,-272.78,-6,988,-4,23.0,16.8,-3.5,22.8,17.3,-3.3,5.73,1.88,-0.9,27.2
2015-06-23 00:24:00,0.0,1.88305,0.00065,397.949,0.089,0.6381,0.0090,139.997,45.000,34183.82516,1.89514,401.064,32.977,45.068,45.000,0.00,0.10,-272.73,-272.78,-6,988,-4,23.0,17.3,-3.2,22.8,17.6,-3.1,5.73,1.90,-0.9,27.3
2015-06-23 00:25:00,0.0,1.88278,0.00051,397.957,0.072,0.6431,0.0119,139.999,45.000,34186.93890,1.89494,401.096,32.968,45.068,45.000,0.00,0.10,-272.72,-272.77,-6,988,-4,23.0,17.3,-3.1,22.8,17.9,-2.8,5.73,1.91,-0.9,27.3
2015-06-23 00:26:00,0.0,1.88343,0.00042,397.985,0.053,0.6347,0.0095,139.997,45.000,34183.63865,1.89539,401.082,32.953,45.068,45.000,0.00,0.10,-272.72,-272.78,-6,988,-5,23.0,17.1,-3.3,22.8,17.6,-3.1,5.73,1.94,-0.9,27.3
2015-06-23 00:27:00,0.0,1.88326,0.00040,397.967,0.067,0.6384,0.0080,140.001,45.000,34185.83708,1.89533,401.081,32.958,45.068,45.000,0.00,0.10,-272.72,-272.79,-6,988,-4,23.0,17.2,-3.2,22.8,17.7,-3.0,5.73,1.94,-0.9,27.3
2015-06-23 00:28:00,0.0,1.88317,0.00032,397.995,0.044,0.6367,0.0030,140.001,45.000,34183.79360,1.89520,401.106,32.987,45.068,45.000,0.00,0.10,-272.72,-272.78,-6,988,-4,23.0,17.2,-3.2,22.8,17.7,-3.0,5.73,1.95,-0.9,27.3
2015-06-23 00:29:00,0.0,1.88299,0.00040,397.864,0.079,0.6524,0.0075,139.999,45.000,34182.76204,1.89536,401.047,33.000,45.068,45.000,0.00,0.10,-272.71,-272.78,-6,988,-5,23.0,17.6,-2.9,22.8,18.0,-2.8,5.73,1.94,-1.0,27.3
2015-06-23 00:30:00,0.0,1.88275,0.00040,397.808,0.063,0.6655,0.0071,140.006,45.000,34186.36949,1.89531,401.057,33.000,45.068,45.000,0.00,0.10,-272.72,-272.79,-6,988,-4,23.0,17.9,-2.6,22.8,18.4,-2.5,5.73,1.93,-0.9,27.2
2015-06-23 00:31:00,0.0,1.88335,0.00037,398.034,0.034,0.6346,0.0053,139.997,45.000,34183.70601,1.89534,401.135,33.000,45.068,45.000,0.00,0.10,-272.72,-272.78,-6,988,-5,23.0,17.1,-3.2,22.8,17.8,-2.9,5.73,1.90,-0.9,27.2
2015-06-23 00:32:00,0.0,1.88276,0.00049,397.749,0.094,0.6669,0.0132,139.999,45.000,34182.11919,1.89542,401.008,33.012,45.068,45.000,0.00,0.10,-272.71,-272.78,-6,988,-4,23.1,18.1,-2.5,22.8,18.3,-2.5,5.73,1.89,-1.0,27.2
2015-06-23 00:33:00,0.0,1.88216,0.00036,397.600,0.097,0.6935,0.0139,140.001,45.000,34183.48656,1.89530,400.987,33.019,45.068,45.000,0.00,0.10,-272.72,-272.78,-6,988,-4,23.1,18.7,-2.0,22.8,19.2,-1.9,5.73,1.88,-0.9,27.3
2015-06-23 00:34:00,0.0,1.88232,0.00042,397.753,0.048,0.6691,0.0047,140.000,45.000,34184.47774,1.89495,401.018,33.044,45.068,45.000,0.00,0.10,-272.73,-272.79,-6,988,-4,23.1,18.1,-2.5,22.8,18.7,-2.3,5.73,1.89,-0.9,27.2
2015-06-23 00:35:00,0.0,1.88295,0.00050,397.955,0.093,0.6387,0.0144,140.002,45.000,34186.01395,1.89506,401.078,33.053,45.068,45.000,0.00,0.10,-272.72,-272.78,-6,988,-4,23.1,17.2,-3.2,22.8,17.9,-2.8,5.73,1.91,-0.9,27.2
2015-06-23 00:36:00,0.0,1.88314,0.00057,398.028,0.074,0.6292,0.0111,140.004,45.000,34185.84024,1.89494,401.097,33.061,45.068,45.000,0.00,0.10,-272.72,-272.77,-6,988,-4,23.1,16.8,-3.4,22.8,17.5,-3.2,5.73,1.93,-0.9,27.2
2015-06-23 00:37:00,0.0,1.88306,0.00051,397.949,0.097,0.6327,0.0112,140.002,45.000,34186.22987,1.89506,401.038,33.062,45.068,45.000,0.00,0.10,-272.73,-272.78,-6,988,-4,23.1,17.1,-3.2,22.8,17.4,-3.2,5.73,1.94,-0.9,27.3
2015-06-23 00:38:00,0.0,1.88249,0.00038,397.743,0.037,0.6660,0.0032,140.000,45.000,34185.41604,1.89509,400.993,33.064,45.068,45.000,0.00,0.10,-272.72,-272.78,-6,988,-4,23.1,18.0,-2.5,22.8,18.4,-2.5,5.73,1.95,-0.9,27.2
2015-06-23 00:39:00,0.0,1.88287,0.00048,397.940,0.090,0.6409,0.0106,140.001,45.000,34186.16636,1.89497,401.071,33.062,45.068,45.000,0.00,0.10,-272.72,-272.77,-6,988,-5,23.1,17.2,-3.1,22.8,17.9,-2.8,5.73,1.94,-0.9,27.3
2015-06-23 00:40:00,0.0,1.88258,0.00045,397.887,0.045,0.6437,0.0066,139.999,45.000,34185.78089,1.89473,401.029,33.065,45.068,45.000,0.00,0.10,-272.72,-272.78,-6,988,-4,23.1,17.3,-3.1,22.8,17.8,-2.9,5.73,1.93,-0.9,27.2
2015-06-23 00:41:00,0.0,1.88331,0.00050,397.973,0.044,0.6315,0.0067,140.003,45.000,34187.03444,1.89522,401.054,33.062,45.068,45.000,0.00,0.10,-272.72,-272.79,-6,988,-4,23.1,17.0,-3.3,22.9,17.5,-3.1,5.73,1.92,-0.9,27.3
2015-06-23 00:42:00,0.0,1.88277,0.00044,397.934,0.027,0.6386,0.0064,140.000,45.000,34187.05604,1.89486,401.051,33.060,45.068,45.000,0.00,0.10,-272.71,-272.78,-7,988,-5,23.1,17.2,-3.1,22.9,17.6,-3.0,5.73,1.89,-0.9,27.3
2015-06-23 00:43:00,0.0,1.88286,0.00053,397.967,0.058,0.6353,0.0063,140.000,45.000,34188.45630,1.89492,401.068,33.062,45.068,45.000,0.00,0.10,-272.72,-272.78,-6,988,-4,23.1,17.1,-3.3,22.9,17.6,-3.0,5.73,1.88,-0.9,27.3
2015-06-23 00:44:00,0.0,1.88294,0.00044,398.003,0.034,0.6312,0.0037,140.000,45.000,34188.59707,1.89485,401.083,33.050,45.068,45.000,0.00,0.10,-272.72,-272.78,-6,988,-4,23.1,16.9,-3.4,22.8,17.4,-3.1,5.73,1.88,-0.9,27.3
2015-06-23 00:45:00,0.0,1.88269,0.00054,397.888,0.090,0.6379,0.0104,139.995,45.000,34188.88994,1.89477,401.005,33.058,45.068,45.000,0.00,0.10,-272.72,-272.78,-6,988,-5,23.1,17.2,-3.1,22.9,17.6,-3.0,5.73,1.89,-0.9,27.3
2015-06-23 00:46:00,0.0,1.88222,0.00053,397.624,0.049,0.6749,0.0087,139.994,45.000,34189.20037,1.89495,400.918,33.059,45.068,45.000,0.00,0.10,-272.72,-272.78,-6,988,-4,23.1,18.2,-2.4,22.9,18.6,-2.3,5.73,1.91,-0.9,27.3
2015-06-23 00:47:00,0.0,1.88268,0.00039,397.950,0.086,0.6376,0.0137,140.000,45.000,34191.00014,1.89474,401.062,33.032,45.068,45.000,0.00,0.10,-272.72,-272.79,-6,988,-4,23.1,17.1,-3.2,22.9,17.9,-2.8,5.73,1.93,-0.9,27.3
2015-06-23 00:48:00,0.0,1.88296,0.00031,397.949,0.042,0.6357,0.0060,139.996,45.000,34186.88821,1.89496,401.050,33.035,45.068,45.000,0.00,0.10,-272.72,-272.79,-6,989,-5,23.1,17.1,-3.2,22.9,17.5,-3.1,5.73,1.94,-0.9,27.3
2015-06-23 00:49:00,0.0,1.88249,0.00050,397.902,0.057,0.6431,0.0079,139.999,45.000,34190.07725,1.89465,401.042,33.058,45.068,45.000,0.00,0.10,-272.71,-272.77,-7,988,-5,23.1,17.3,-3.1,22.9,17.7,-2.9,5.73,1.95,-0.9,27.2
2015-06-23 00:50:00,0.0,1.88257,0.00055,397.775,0.088,0.6582,0.0132,139.999,45.000,34190.11893,1.89496,400.987,33.058,45.068,45.000,0.00,0.10,-272.72,-272.78,-6,988,-4,23.1,17.8,-2.7,22.9,18.1,-2.6,5.73,1.94,-0.9,27.3
2015-06-23 00:51:00,0.0,1.88248,0.00056,397.878,0.149,0.6509,0.0252,140.001,45.000,34192.42720,1.89485,401.055,33.059,45.068,45.000,0.00,0.10,-272.72,-272.78,-6,988,-4,23.1,17.4,-3.0,22.9,18.1,-2.6,5.73,1.93,-0.9,27.3
2015-06-23 00:52:00,0.0,1.88288,0.00027,397.939,0.083,0.6375,0.0079,140.005,45.000,34193.96612,1.89492,401.051,33.047,45.068,45.000,0.00,0.10,-272.72,-272.77,-6,988,-5,23.1,17.1,-3.2,22.9,17.6,-3.0,5.73,1.91,-0.9,27.3
2015-06-23 00:53:00,0.0,1.88270,0.00036,397.867,0.055,0.6516,0.0078,139.997,45.000,34192.37415,1.89502,401.048,33.051,45.068,45.000,0.00,0.10,-272.72,-272.78,-6,989,-4,23.1,17.5,-2.9,22.9,18.0,-2.7,5.73,1.89,-0.9,27.2
2015-06-23 00:54:00,0.0,1.88297,0.00045,397.953,0.052,0.6347,0.0056,140.000,45.000,34190.98757,1.89496,401.052,33.058,45.068,45.000,0.00,0.10,-272.72,-272.79,-6,988,-5,23.1,17.1,-3.2,22.9,17.6,-3.0,5.73,1.88,-0.9,27.3
2015-06-23 00:55:00,0.0,1.88302,0.00043,398.007,0.065,0.6281,0.0095,139.996,45.000,34190.63172,1.89490,401.073,33.063,45.068,45.000,0.00,0.10,-272.72,-272.78,-6,989,-5,23.1,16.9,-3.4,22.9,17.4,-3.2,5.73,1.89,-0.9,27.3
2015-06-23 00:56:00,0.0,1.88252,0.00044,397.873,0.043,0.6409,0.0056,140.004,45.000,34194.09533,1.89463,400.999,33.067,45.068,45.000,0.00,0.10,-272.71,-272.77,-6,988,-5,23.1,17.2,-3.1,22.9,17.6,-3.0,5.73,1.90,-0.9,27.3
2015-06-23 00:57:00,0.0,1.88259,0.00056,397.759,0.083,0.6605,0.0119,140.002,45.000,34192.28442,1.89506,400.984,33.071,45.068,45.000,0.00,0.10,-272.72,-272.79,-6,989,-5,23.1,17.8,-2.7,22.9,18.1,-2.6,5.73,1.92,-0.9,27.3
2015-06-23 00:58:00,0.0,1.88248,0.00031,397.854,0.059,0.6451,0.0077,140.001,45.000,34192.96166,1.89468,401.006,33.069,45.068,45.000,0.00,0.10,-272.72,-272.78,-6,989,-5,23.1,17.4,-3.0,22.9,18.0,-2.7,5.73,1.93,-0.9,27.3
2015-06-23 00:59:00,0.0,1.88251,0.00059,397.765,0.051,0.6564,0.0055,139.999,45.000,34190.70225,1.89487,400.968,33.063,45.068,45.000,0.00,0.10,-272.72,-272.78,-6,989,-5,23.1,17.7,-2.7,22.9,18.1,-2.7,5.73,1.95,-0.9,27.2
2015-06-23 01:00:00,0.0,1.88272,0.00058,397.804,0.102,0.6591,0.0138,140.000,45.000,34189.99622,1.89522,401.022,33.063,45.068,45.000,0.00,0.10,-272.72,-272.78,-6,989,-5,23.1,17.7,-2.7,22.9,18.3,-2.5,5.73,1.95,-0.9,27.3
2015-06-23 01:01:00,0.0,1.88291,0.00028,397.813,0.064,0.6560,0.0085,140.005,45.000,34191.61717,1.89530,401.017,33.062,45.068,45.000,0.00,0.10,-272.72,-272.78,-6,989,-5,23.1,17.7,-2.7,22.9,18.1,-2.6,5.73,1.94,-0.9,27.3
2015-06-23 01:02:00,0.0,1.88297,0.00044,397.901,0.050,0.6465,0.0087,140.002,45.000,34192.25506,1.89521,401.057,33.059,45.068,45.000,0.00,0.10,-272.72,-272.78,-6,989,-5,23.1,17.3,-3.0,22.9,17.9,-2.8,5.73,1.92,-0.9,27.3
2015-06-23 01:03:00,0.0,1.88305,0.00039,397.821,0.075,0.6491,0.0099,140.002,45.000,34191.93528,1.89531,400.990,33.061,45.068,45.000,0.00,0.10,-272.71,-272.77,-6,988,-5,23.1,17.5,-2.9,22.9,17.9,-2.8,5.73,1.90,-0.9,27.4
2015-06-23 01:04:00,0.0,1.88257,0.00046,397.785,0.078,0.6594,0.0072,140.002,45.000,34192.53277,1.89502,401.004,33.063,45.068,45.000,0.00,0.10,-272.73,-272.78,-6,989,-5,23.1,17.7,-2.7,22.9,18.3,-2.5,5.73,1.89,-0.9,27.4
2015-06-23 01:05:00,0.0,1.88270,0.00048,397.926,0.063,0.6393,0.0078,139.995,45.000,34191.38792,1.89478,401.049,33.071,45.068,45.000,0.00,0.10,-272.72,-272.78,-6,988,-5,23.1,17.1,-3.2,22.9,17.7,-2.9,5.73,1.88,-0.9,27.3
2015-06-23 01:06:00,0.0,1.88301,0.00037,397.924,0.085,0.6367,0.0094,139.998,45.000,34192.06058,1.89503,401.031,33.082,45.068,45.000,0.00,0.10,-272.72,-272.78,-6,988,-5,23.1,17.0,-3.2,22.9,17.5,-3.1,5.73,1.89,-0.9,27.3
2015-06-23 01:07:00,0.0,1.88270,0.00054,397.833,0.044,0.6475,0.0035,139.997,45.000,34191.84497,1.89497,400.995,33.067,45.068,45.000,0.00,0.10,-272.72,-272.79,-6,989,-5,23.1,17.4,-2.9,22.9,17.8,-2.8,5.73,1.90,-0.9,27.3
2015-06-23 01:08:00,0.0,1.88263,0.00054,397.787,0.038,0.6567,0.0055,139.997,45.000,34191.99177,1.89503,400.991,33.061,45.068,45.000,0.00,0.10,-272.72,-272.78,-6,988,-5,23.1,17.6,-2.8,22.9,18.1,-2.6,5.73,1.91,-0.9,27.3
2015-06-23 01:09:00,0.0,1.88292,0.00050,397.873,0.043,0.6413,0.0052,140.002,45.000,34194.74746,1.89504,401.004,33.036,45.068,45.000,0.00,0.10,-272.71,-272.78,-6,989,-5,23.1,17.2,-3.1,22.9,17.8,-2.9,5.73,1.92,-0.9,27.3
2015-06-23 01:10:00,0.0,1.88292,0.00034,397.859,0.043,0.6459,0.0078,140.002,45.000,34193.82742,1.89513,401.012,33.054,45.068,45.000,0.00,0.10,-272.72,-272.78,-6,988,-5,23.1,17.4,-3.0,22.9,17.8,-2.8,5.73,1.94,-0.9,27.3
2015-06-23 01:11:00,0.0,1.88271,0.00045,397.769,0.046,0.6582,0.0051,139.999,45.000,34192.19977,1.89516,400.982,33.068,45.068,45.000,0.00,0.10,-272.72,-272.78,-6,988,-5,23.1,17.7,-2.7,22.9,18.1,-2.6,5.73,1.94,-0.8,27.3
2015-06-23 01:12:00,0.0,1.88286,0.00038,397.758,0.030,0.6614,0.0054,139.996,45.000,34190.73342,1.89535,400.988,33.068,45.068,45.000,0.00,0.10,-272.72,-272.78,-6,989,-5,23.1,17.7,-2.7,22.9,18.3,-2.5,5.73,1.94,-0.9,27.4
2015-06-23 01:13:00,0.0,1.88336,0.00029,397.867,0.046,0.6462,0.0059,140.003,45.000,34191.79471,1.89560,401.020,33.111,45.068,45.000,0.00,0.10,-272.72,-272.78,-6,989,-5,23.1,17.3,-3.0,22.9,17.9,-2.7,5.73,1.92,-0.9,27.3
2015-06-23 01:14:00,0.0,1.88285,0.00036,397.780,0.046,0.6536,0.0088,140.002,45.000,34192.89177,1.89519,400.972,33.125,45.068,45.000,0.00,0.10,-272.72,-272.79,-6,989,-5,23.1,17.6,-2.8,22.9,18.0,-2.7,5.73,1.92,-0.8,27.4
2015-06-23 01:15:00,0.0,1.88287,0.00028,397.773,0.043,0.6571,0.0033,140.002,45.000,34191.70168,1.89527,400.981,33.127,45.068,45.000,0.00,0.10,-272.72,-272.78,-6,989,-5,23.1,17.7,-2.8,22.9,18.2,-2.5,5.73,1.90,-0.8,27.4
2015-06-23 01:16:00,0.0,1.88319,0.00045,397.865,0.096,0.6477,0.0127,139.997,45.000,34191.34666,1.89546,401.028,33.126,45.068,45.000,0.00,0.10,-272.71,-272.78,-7,988,-5,23.2,17.3,-3.0,22.9,18.0,-2.7,5.73,1.89,-0.8,27.4
2015-06-23 01:17:00,0.0,1.88308,0.00036,397.858,0.036,0.6471,0.0032,140.001,45.000,34193.19633,1.89531,401.014,33.146,45.068,45.000,0.00,0.10,-272.72,-272.78,-6,989,-5,23.2,17.3,-3.0,22.9,17.8,-2.8,5.73,1.88,-0.8,27.4
2015-06-23 01:18:00,0.0,1.88286,0.00037,397.837,0.064,0.6526,0.0098,140.002,45.000,34195.25193,1.89517,401.026,33.182,45.068,45.000,0.00,0.10,-272.72,-272.78,-6,988,-5,23.2,17.4,-2.9,22.9,18.0,-2.7,5.73,1.89,-0.8,27.4
2015-06-23 01:19:00,0.0,1.88326,0.00041,397.951,0.051,0.6376,0.0040,140.003,45.000,34194.04018,1.89532,401.063,33.172,45.068,45.000,0.00,0.10,-272.72,-272.77,-6,989,-5,23.2,17.0,-3.2,22.9,17.6,-3.0,5.73,1.90,-0.8,27.4
2015-06-23 01:20:00,0.0,1.88292,0.00044,397.836,0.066,0.6501,0.0061,139.999,45.000,34194.10476,1.89523,401.008,33.164,45.068,45.000,0.00,0.10,-272.71,-272.78,-6,989,-5,23.2,17.4,-2.9,22.9,17.9,-2.8,5.73,1.92,-0.8,27.4
2015-06-23 01:21:00,0.0,1.88290,0.00022,397.764,0.040,0.6663,0.0082,140.003,45.000,34192.36017,1.89549,401.016,33.128,45.068,45.000,0.00,0.10,-272.72,-272.79,-6,989,-5,23.2,17.8,-2.6,22.9,18.2,-2.5,5.73,1.93,-0.8,27.4
2015-06-23 01:22:00,0.0,1.88295,0.00041,397.780,0.051,0.6574,0.0066,139.998,45.000,34193.69572,1.89541,400.990,33.125,45.068,45.000,0.00,0.10,-272.71,-272.78,-6,989,-5,23.2,17.6,-2.8,22.9,18.2,-2.5,5.73,1.94,-0.8,27.4
2015-06-23 01:23:00,0.0,1.88311,0.00038,397.847,0.078,0.6466,0.0065,140.001,45.000,34193.53186,1.89530,401.006,33.125,45.068,45.000,0.00,0.10,-272.71,-272.78,-6,989,-5,23.2,17.3,-3.0,22.9,17.8,-2.8,5.73,1.94,-0.8,27.4
2015-06-23 01:24:00,0.0,1.88275,0.00043,397.624,0.058,0.6772,0.0083,140.000,45.000,34193.28940,1.89558,400.930,33.125,45.068,45.000,0.00,0.10,-272.72,-272.79,-6,989,-5,23.2,18.2,-2.3,22.9,18.5,-2.3,5.73,1.94,-0.8,27.4
2015-06-23 01:25:00,0.0,1.88216,0.00055,397.615,0.131,0.6806,0.0181,139.997,45.000,34194.65466,1.89506,400.938,33.125,45.068,45.000,0.00,0.10,-272.72,-272.78,-6,989,-5,23.2,18.2,-2.3,22.9,18.8,-2.0,5.73,1.93,-0.8,27.4
2015-06-23 01:26:00,0.0,1.88270,0.00042,397.743,0.045,0.6619,0.0071,139.998,45.000,34194.53164,1.89520,400.977,33.155,45.068,45.000,0.00,0.10,-272.72,-272.78,-6,989,-5,23.2,17.7,-2.7,22.9,18.3,-2.5,5.73,1.92,-0.8,27.4
2015-06-23 01:27:00,0.0,1.88222,0.00039,397.674,0.053,0.6711,0.0066,139.999,45.000,34194.50545,1.89492,400.948,33.182,45.068,45.000,0.00,0.10,-272.72,-272.78,-6,989,-5,23.2,18.0,-2.5,23.0,18.4,-2.3,5.73,1.90,-0.8,27.4
2015-06-23 01:28:00,0.0,1.88257,0.00048,397.662,0.046,0.6721,0.0040,140.002,45.000,34192.89406,1.89531,400.947,33.185,45.068,45.000,0.00,0.10,-272.72,-272.79,-6,989,-5,23.2,18.0,-2.4,23.0,18.6,-2.2,5.73,1.89,-0.8,27.4
2015-06-23 01:29:00,0.0,1.88278,0.00042,397.839,0.075,0.6527,0.0130,139.996,45.000,34193.35302,1.89510,401.024,33.170,45.068,45.000,0.00,0.10,-272.71,-272.77,-6,989,-5,23.2,17.3,-2.9,23.0,18.1,-2.6,5.73,1.89,-0.8,27.4
2015-06-23 01:30:00,0.0,1.88296,0.00044,397.755,0.094,0.6566,0.0100,140.004,45.000,34196.60673,1.89537,400.963,33.168,45.068,45.000,0.00,0.10,-272.72,-272.78,-6,989,-5,23.2,17.5,-2.8,23.0,17.9,-2.7,5.73,1.89,-0.8,27.4
2015-06-23 01:31:00,0.0,1.88260,0.00035,397.601,0.039,0.6787,0.0085,140.001,45.000,34192.64114,1.89542,400.914,33.168,45.068,45.000,0.00,0.10,-272.73,-272.78,-6,989,-5,23.2,18.2,-2.3,23.0,18.5,-2.2,5.73,1.90,-0.8,27.4
2015-06-23 01:32:00,0.0,1.88277,0.00044,397.681,0.101,0.6757,0.0105,140.003,45.000,34194.51710,1.89552,400.979,33.153,45.068,45.000,0.00,0.10,-272.72,-272.78,-6,988,-5,23.2,18.0,-2.4,23.0,18.7,-2.1,5.73,1.91,-0.8,27.4
2015-06-23 01:33:00,0.0,1.88280,0.00054,397.676,0.099,0.6717,0.0086,140.002,45.000,34194.79584,1.89555,400.959,33.138,45.068,45.000,0.00,0.10,-272.71,-272.77,-6,989,-5,23.2,18.0,-2.4,23.0,18.4,-2.3,5.73,1.93,-0.8,27.4
2015-06-23 01:34:00,0.0,1.88240,0.00054,397.493,0.038,0.7003,0.0028,140.000,45.000,34194.91396,1.89573,400.913,33.134,45.068,45.000,0.00,0.10,-272.72,-272.78,-6,989,-5,23.2,18.7,-1.9,23.0,19.2,-1.8,5.73,1.94,-0.8,27.4
2015-06-23 01:35:00,0.0,1.88224,0.00046,397.665,0.052,0.6775,0.0070,140.002,45.000,34196.98231,1.89501,400.975,33.159,45.068,45.000,0.00,0.10,-272.72,-272.79,-6,989,-5,23.2,18.1,-2.3,23.0,18.8,-2.0,5.73,1.94,-0.8,27.4
2015-06-23 01:36:00,0.0,1.88266,0.00039,397.633,0.052,0.6802,0.0045,140.001,45.000,34194.87107,1.89554,400.955,33.159,45.068,45.000,0.00,0.10,-272.71,-272.77,-6,989,-5,23.3,18.2,-2.3,23.0,18.7,-2.1,5.73,1.94,-0.8,27.5
2015-06-23 01:37:00,0.0,1.88275,0.00050,397.635,0.077,0.6781,0.0109,139.999,45.000,34194.23874,1.89555,400.947,33.177,45.068,45.000,0.00,0.10,-272.72,-272.78,-6,988,-5,23.2,18.2,-2.3,23.0,18.7,-2.1,5.73,1.93,-0.8,27.4
2015-06-23 01:38:00,0.0,1.88243,0.00032,397.538,0.035,0.6921,0.0049,140.000,45.000,34195.01712,1.89556,400.918,33.188,45.068,45.000,0.00,0.10,-272.72,-272.79,-7,989,-5,23.2,18.5,-2.0,23.0,19.1,-1.8,5.73,1.92,-0.8,27.4
2015-06-23 01:39:00,0.0,1.88241,0.00034,397.681,0.058,0.6658,0.0101,139.998,45.000,34197.15776,1.89498,400.932,33.189,45.068,45.000,0.00,0.10,-272.72,-272.78,-6,989,-5,23.3,17.8,-2.5,23.0,18.5,-2.3,5.73,1.91,-0.8,27.5
2015-06-23 01:40:00,0.0,1.88223,0.00036,397.637,0.055,0.6746,0.0084,139.999,45.000,34197.47433,1.89506,400.936,33.187,45.068,45.000,0.00,0.10,-272.72,-272.78,-6,988,-5,23.3,18.0,-2.4,23.0,18.6,-2.2,5.73,1.89,-0.8,27.5
2015-06-23 01:41:00,0.0,1.88204,0.00042,397.632,0.062,0.6732,0.0068,140.001,45.000,34199.62073,1.89473,400.917,33.185,45.068,45.000,0.00,0.10,-272.72,-272.78,-6,989,-5,23.3,17.9,-2.4,23.0,18.5,-2.3,5.73,1.88,-0.8,27.5
2015-06-23 01:42:00,0.0,1.88164,0.00052,397.417,0.134,0.6960,0.0145,140.000,45.000,34199.32267,1.89481,400.816,33.186,45.068,45.000,0.00,0.10,-272.72,-272.78,-6,989,-5,23.3,18.7,-1.9,23.0,19.0,-1.9,5.73,1.89,-0.8,27.5
2015-06-23 01:43:00,0.0,1.88201,0.00049,397.513,0.125,0.6967,0.0147,140.000,45.000,34199.09788,1.89514,400.915,33.185,45.068,45.000,0.00,0.10,-272.71,-272.77,-6,989,-5,23.2,18.6,-2.0,23.0,19.3,-1.6,5.73,1.89,-0.8,27.5
2015-06-23 01:44:00,0.0,1.88207,0.00054,397.617,0.046,0.6786,0.0043,139.998,45.000,34199.50578,1.89495,400.932,33.188,45.068,45.000,0.00,0.10,-272.72,-272.78,-6,989,-5,23.3,18.1,-2.3,23.0,18.7,-2.1,5.73,1.90,-0.8,27.4
2015-06-23 01:45:00,0.0,1.88216,0.00039,397.578,0.090,0.6829,0.0096,139.998,45.000,34198.52202,1.89506,400.916,33.187,45.068,45.000,0.00,0.10,-272.72,-272.78,-7,989,-5,23.3,18.1,-2.3,23.0,18.8,-2.0,5.73,1.92,-0.8,27.4
2015-06-23 01:46:00,0.0,1.88218,0.00051,397.600,0.057,0.6795,0.0066,140.002,45.000,34200.44848,1.89505,400.919,33.181,45.068,45.000,0.00,0.10,-272.71,-272.77,-6,989,-5,23.3,18.1,-2.3,23.0,18.6,-2.1,5.73,1.93,-0.7,27.5